K4BS Weather Reports


time (UTC)temp
F
wind
direction
speed
knots
gust
knots
rain 1hr
in
rain 24hr
in
rain mn
in
humidity
%
barometer
mb
20211025041013 57 171 0.0 0.0 0.00 0.01 0.00 95 1022.5
20211025040012 57 171 0.0 0.0 0.00 0.01 0.00 95 1022.6
20211025035012 57 171 0.0 0.0 0.00 0.01 0.01 95 1022.9
20211025034012 57 171 0.0 0.0 0.00 0.01 0.01 95 1022.8
20211025032013 58 142 0.0 0.0 0.00 0.01 0.01 95 1022.7
20211025031012 58 142 0.0 0.0 0.00 0.01 0.01 95 1022.8
20211025030012 58 142 0.0 0.0 0.00 0.01 0.01 95 1022.8
20211025025012 58 142 0.0 0.0 0.00 0.01 0.01 94 1023.2
20211025024012 58 142 0.0 0.0 0.00 0.01 0.01 94 1023.2
20211025023013 58 142 0.0 0.0 0.00 0.01 0.01 94 1023.0
20211025022013 58 142 0.0 0.0 0.00 0.01 0.01 94 1022.8
20211025021012 58 142 0.0 0.0 0.00 0.02 0.01 94 1022.9
20211025020012 58 142 0.0 0.0 0.00 0.02 0.01 94 1022.6
20211025015012 58 142 0.0 0.0 0.00 0.02 0.01 94 1023.2
20211025014012 58 142 0.0 0.0 0.00 0.02 0.01 94 1023.2
20211025012012 58 142 0.0 0.0 0.00 0.02 0.01 93 1023.3
20211025011014 58 142 0.0 0.0 0.00 0.02 0.01 93 1023.4
20211025010012 58 142 0.0 0.0 0.00 0.02 0.01 93 1023.5
20211025005012 58 142 0.0 0.0 0.00 0.02 0.01 92 1023.7
20211025004012 58 142 0.0 0.0 0.00 0.02 0.01 92 1023.4
20211025003013 58 142 0.0 0.0 0.00 0.02 0.01 92 1023.5
20211025002012 59 142 0.0 0.0 0.00 0.02 0.01 91 1023.4
20211025001012 59 142 0.0 0.0 0.00 0.02 0.01 91 1023.6
20211025000011 59 142 0.0 0.0 0.00 0.02 0.01 90 1023.7
20211024235013 59 142 0.0 0.9 0.00 0.02 0.01 90 1023.5
20211024233013 60 142 0.0 0.0 0.00 0.02 0.01 89 1023.3
20211024225012 63 142 0.0 0.0 0.00 0.02 0.01 87 1023.3
20211024224012 63 142 0.0 0.0 0.00 0.02 0.01 86 1023.4
20211024222012 64 142 0.0 0.0 0.01 0.02 0.01 84 1023.1
20211024221013 65 142 0.0 0.0 0.01 0.02 0.01 82 1023.1
20211024220011 66 142 0.0 0.0 0.01 0.02 0.01 80 1023.1
20211024215013 66 142 0.0 0.0 0.01 0.02 0.01 77 1023.2
20211024214013 67 142 0.0 0.0 0.01 0.02 0.01 76 1023.1
20211024213012 67 142 0.0 0.0 0.01 0.02 0.01 74 1023.1
20211024211012 68 142 0.0 0.0 0.00 0.01 0.00 71 1023.1
20211024205013 69 142 0.0 0.0 0.00 0.01 0.00 66 1022.8
20211024204012 69 142 0.0 0.0 0.00 0.01 0.00 62 1023.0
20211024203012 69 142 0.0 0.0 0.00 0.01 0.00 60 1023.1
20211024202011 69 142 0.0 0.9 0.00 0.01 0.00 59 1023.3
20211024200011 70 142 0.0 0.0 0.00 0.01 0.00 63 1023.2
20211024193012 69 142 0.0 0.0 0.00 0.01 0.00 64 1023.0
20211024192012 69 153 0.0 0.0 0.00 0.01 0.00 62 1023.1
20211024191012 69 153 0.0 1.7 0.00 0.01 0.00 64 1023.0
20211024185011 69 148 0.0 0.0 0.00 0.01 0.00 64 1023.2
20211024184016 68 148 0.0 0.9 0.00 0.01 0.00 65 1023.3
20211024181012 68 107 0.0 0.9 0.00 0.01 0.00 68 1023.6
20211024175012 68 36 0.0 1.7 0.00 0.01 0.00 65 1023.8
20211024174012 67 234 0.0 0.0 0.00 0.01 0.00 68 1024.0
20211024172012 66 239 0.0 0.9 0.00 0.01 0.00 71 1024.6
20211024171012 65 237 0.0 0.9 0.00 0.01 0.00 71 1024.8
20211024170012 65 236 0.0 0.9 0.00 0.01 0.00 76 1024.8
20211024165012 64 248 0.0 0.0 0.00 0.01 0.00 77 1024.9
20211024164014 64 248 0.0 0.0 0.00 0.01 0.00 77 1025.1
20211024163011 64 248 0.0 0.0 0.00 0.01 0.00 78 1025.3
20211024162012 64 248 0.0 0.0 0.00 0.01 0.00 81 1025.4
20211024161012 63 234 0.0 0.9 0.00 0.01 0.00 80 1025.4
20211024154012 60 267 0.0 0.0 0.00 0.01 0.00 96 1025.3
20211024153012 59 267 0.0 0.9 0.00 0.01 0.00 99 1025.2
20211024150015 56 161 0.0 0.9 0.00 0.01 0.00 99 1025.5
20211024145012 56 161 0.0 0.0 0.00 0.01 0.00 99 1025.4
20211024144016 55 161 0.0 0.9 0.00 0.02 0.00 99 1025.6
20211024143011 54 152 0.0 0.0 0.00 0.02 0.00 99 1025.8
20211024142012 54 152 0.0 0.0 0.00 0.02 0.00 99 1025.9
20211024141012 53 152 0.0 0.0 0.00 0.02 0.00 99 1025.9
20211024135011 50 152 0.0 0.0 0.00 0.02 0.00 99 1025.9
20211024134011 49 152 0.0 0.0 0.00 0.02 0.00 99 1025.9
20211024133012 48 152 0.0 0.0 0.00 0.02 0.00 98 1026.0
20211024132011 48 152 0.0 0.0 0.00 0.02 0.00 98 1026.0
20211024131011 47 152 0.0 0.0 0.00 0.02 0.00 98 1026.1
20211024125012 46 152 0.0 0.0 0.00 0.02 0.00 98 1025.7
20211024124012 46 152 0.0 0.0 0.00 0.02 0.00 97 1025.5
20211024123011 46 152 0.0 0.0 0.00 0.02 0.00 97 1025.5
20211024122012 46 152 0.0 0.0 0.00 0.02 0.00 97 1025.4
20211024121012 46 152 0.0 0.0 0.00 0.02 0.00 97 1025.2
20211024120011 46 152 0.0 0.0 0.00 0.02 0.00 97 1025.3
20211024113011 46 152 0.0 0.0 0.00 0.02 0.00 97 1025.1
20211024112011 46 152 0.0 0.0 0.00 0.02 0.00 97 1025.1
20211024110011 46 152 0.0 0.0 0.00 0.02 0.00 97 1025.0
20211024105012 46 152 0.0 0.0 0.00 0.02 0.00 97 1024.7
20211024104012 46 152 0.0 0.0 0.00 0.02 0.00 97 1024.5
20211024103011 46 152 0.0 0.0 0.00 0.02 0.00 97 1024.6
20211024102012 46 152 0.0 0.0 0.00 0.02 0.00 97 1024.4
20211024101012 47 152 0.0 0.0 0.00 0.02 0.00 97 1024.3
20211024100011 47 152 0.0 0.0 0.00 0.02 0.00 96 1024.4
20211024094011 47 152 0.0 0.0 0.00 0.02 0.00 96 1023.9
20211024092011 47 152 0.0 0.0 0.00 0.02 0.00 97 1023.5
20211024091011 47 152 0.0 0.0 0.00 0.02 0.00 97 1023.4
20211024090011 47 152 0.0 0.0 0.00 0.02 0.00 96 1023.5
20211024082012 47 152 0.0 0.0 0.00 0.02 0.00 96 1023.3
20211024081011 47 152 0.0 0.0 0.00 0.02 0.00 96 1023.2
20211024074011 48 152 0.0 0.0 0.00 0.02 0.00 96 1023.3
20211024073012 48 152 0.0 0.0 0.00 0.02 0.00 96 1023.2
20211024072012 48 152 0.0 0.0 0.00 0.02 0.00 96 1023.2
20211024071011 48 152 0.0 0.0 0.00 0.02 0.00 96 1023.2
20211024070010 48 152 0.0 0.0 0.00 0.02 0.00 96 1023.1
20211024064011 48 152 0.0 0.0 0.00 0.02 0.00 96 1023.1
20211024063011 48 152 0.0 0.0 0.00 0.02 0.00 96 1023.2
20211024062011 48 152 0.0 0.0 0.00 0.02 0.00 96 1023.1
20211024060011 49 152 0.0 0.0 0.00 0.02 0.00 96 1023.0
20211024054011 49 152 0.0 0.0 0.00 0.02 0.00 96 1023.1
20211024051013 49 152 0.0 0.0 0.00 0.02 0.00 95 1022.8
20211024050010 49 152 0.0 0.0 0.00 0.02 0.00 95 1022.8
20211024045011 49 152 0.0 0.0 0.00 0.02 0.00 95 1022.9